Location: Harwich
(41.6860°N, 70.0760°W)
Time: 02:02:51
(UTC-04:00)

Cosmos 2228 - Visible Passes

Search period start: 24 May 2016 00:00
Search period end: 03 June 2016 00:00
Orbit: 592 x 620 km, 82.5° (Epoch: 23 May)

Date Brightness Start Highest point End Pass type
(mag) Time Alt. Az. Time Alt. Az. Time Alt. Az.
24 May 4.7 22:00:19 10° NNW 22:04:09 30° W 22:07:57 10° SSW visible
25 May 3.7 20:35:46 10° N 20:39:54 38° ENE 20:44:01 10° SE visible
25 May 5.5 22:14:10 10° NW 22:17:10 18° W 22:20:10 10° SW visible
26 May 3.1 20:48:46 10° N 20:53:10 65° E 20:57:32 10° SSE visible
26 May 5.9 22:29:04 10° WNW 22:30:07 11° W 22:31:11 10° W visible
27 May 3.3 21:01:57 10° NNW 21:06:22 74° W 21:10:45 10° S visible
28 May 4.2 21:15:18 10° NNW 21:19:28 42° W 21:23:38 10° SSW visible
29 May 5.2 21:28:55 10° NNW 21:32:32 25° W 21:36:09 10° SW visible
30 May 5.8 21:42:56 10° NW 21:45:32 15° W 21:48:07 10° WSW visible
02 Jun 4.7 20:43:50 10° NNW 20:47:52 35° W 20:51:52 10° SSW visible
